CAPELLA-15 (ACADIA)

导读 | 星芒AI

CAPELLA-15(ACADIA)是由Capella Space公司发射的合成孔径雷达(SAR)卫星,于2022年10月搭乘SpaceX猎鹰九号火箭进入轨道。该卫星具备高分辨率成像能力,可提供亚米级雷达图像,支持全天候、全天时对地观测。CAPELLA-15增强了Capella的地球观测网络,服务于政府、国防、灾害监测和商业应用。其先进SAR技术提升了数据获取频率和图像质量,为用户提供更高效的遥感解决方案。

基本信息
目录编号:
60544
目录名称:
CAPELLA-15 (ACADIA)
国际标识:
2024-149CE
轨道中心:
EARTH
卫星名称:
CAPELLA-15 (ACADIA)
卫星全名:
CAPELLA-15 (ACADIA)
卫星状态:
在轨 (已飞行439 天)
发射日期:
2024-08-16 UTC
国别 :
美国 (US)
星等 :
--
轨道信息
数据来源 国际轨道数据
星历时间: 2025-10-28T19:27:45+0800
1天前
查看轨道信息
半长轴: 6968.51km
偏心率: 0.0004884
轨道倾角: 97.702°
近地点辐角 133.455°
升交点赤经 14.850°
平近点角 226.707°
近地点: 586.971km
远地点: 593.779km
周期: 96.487分钟
每日圈数: 14.924263
详细信息
使用方式:
暂无
2D轨道图
3D轨道图
轨道高度分析图
轨道倾角分析图
轨道综合分析图
查看轨道综合分析图